FW0409 Weather Reports


time (UTC)temp
C
wind
direction
speed
KPH
gust
KPH
rain 1hr
cm
rain 24hr
cm
rain mn
cm
humidity
%
barometer
mb
20260507110009 11 309 3.2 9.7 0.00 0.00 0.00 74 1020.5
20260507105503 11 302 3.2 6.4 0.00 0.00 0.00 75 1020.6
20260507105002 11 299 0.0 6.4 0.00 0.00 0.00 75 1020.6
20260507104502 11 299 3.2 12.9 0.00 0.00 0.00 75 1020.5
20260507104003 11 301 4.8 12.9 0.00 0.00 0.00 75 1020.7
20260507103601 11 303 0.0 12.9 0.00 0.00 0.00 75 1020.6
20260507103100 11 306 3.2 14.5 0.00 0.00 0.00 75 1020.7
20260507102600 11 293 1.6 12.9 0.00 0.00 0.00 75 1020.6
20260507102059 11 295 3.2 11.3 0.00 0.00 0.00 75 1020.7
20260507101603 11 270 1.6 11.3 0.00 0.00 0.00 75 1020.8
20260507101057 11 313 3.2 14.5 0.00 0.00 0.00 75 1020.8
20260507100557 11 340 4.8 12.9 0.00 0.00 0.00 75 1020.7
20260507100059 12 282 4.8 12.9 0.00 0.00 0.00 75 1020.8
20260507095556 12 302 3.2 12.9 0.00 0.00 0.00 76 1020.7
20260507095058 12 304 6.4 12.9 0.00 0.00 0.00 76 1021.0
20260507094558 12 261 3.2 8.0 0.00 0.00 0.00 76 1020.9
20260507094054 12 269 3.2 8.0 0.00 0.00 0.00 76 1020.8
20260507093553 12 246 1.6 14.5 0.00 0.00 0.00 76 1021.0
20260507093053 12 299 6.4 14.5 0.00 0.00 0.00 76 1021.0
20260507092553 12 280 3.2 12.9 0.00 0.00 0.00 76 1021.1
20260507092051 12 292 4.8 12.9 0.00 0.00 0.00 76 1021.0
20260507091551 12 304 4.8 12.9 0.00 0.00 0.00 76 1021.0
20260507091051 12 288 3.2 11.3 0.00 0.00 0.00 76 1021.2
20260507090551 12 289 4.8 11.3 0.00 0.00 0.00 76 1021.1
20260507090054 12 336 3.2 8.0 0.00 0.00 0.00 76 1021.1
20260507085550 12 283 3.2 6.4 0.00 0.00 0.00 76 1021.1
20260507085050 12 284 1.6 6.4 0.00 0.00 0.00 76 1021.0
20260507084550 12 273 0.0 3.2 0.00 0.00 0.00 76 1021.1
20260507084048 12 294 0.0 6.4 0.00 0.00 0.00 76 1021.1
20260507083549 12 294 1.6 6.4 0.00 0.00 0.00 76 1021.2
20260507083050 12 296 0.0 11.3 0.00 0.00 0.00 76 1021.2
20260507082548 12 293 3.2 11.3 0.00 0.00 0.00 76 1021.2
20260507082047 12 261 0.0 6.4 0.00 0.00 0.00 77 1021.2
20260507081549 12 259 1.6 6.4 0.00 0.00 0.00 76 1021.3
20260507081050 12 299 0.0 3.2 0.00 0.00 0.00 77 1021.1
20260507080547 12 298 0.0 3.2 0.00 0.00 0.00 77 1021.2
20260507080046 12 298 0.0 3.2 0.00 0.00 0.00 77 1021.1
20260507075547 12 299 0.0 4.8 0.00 0.00 0.00 77 1021.2
20260507075049 12 299 1.6 8.0 0.00 0.00 0.00 77 1021.2
20260507074548 12 299 0.0 8.0 0.00 0.00 0.00 76 1021.3
20260507074045 12 273 1.6 6.4 0.00 0.00 0.00 77 1021.2
20260507073548 12 328 3.2 12.9 0.00 0.00 0.00 76 1021.2
20260507073102 12 278 1.6 9.7 0.00 0.00 0.00 77 1021.1
20260507072545 12 278 3.2 8.0 0.00 0.00 0.00 76 1021.1
20260507072043 12 290 0.0 11.3 0.00 0.00 0.00 76 1021.2
20260507071543 12 261 0.0 12.9 0.00 0.00 0.00 76 1021.0
20260507071043 12 300 4.8 11.3 0.00 0.00 0.00 76 1021.1
20260507070543 12 308 1.6 6.4 0.00 0.00 0.00 77 1021.1
20260507070043 12 309 0.0 9.7 0.00 0.00 0.00 76 1021.0
20260507065540 12 309 4.8 11.3 0.00 0.00 0.00 76 1021.1
20260507065041 12 303 3.2 6.4 0.00 0.00 0.00 77 1021.2
20260507064548 12 286 1.6 11.3 0.00 0.00 0.00 76 1021.1
20260507064040 12 315 3.2 11.3 0.00 0.00 0.00 76 1021.1
20260507063540 12 219 3.2 11.3 0.00 0.00 0.00 76 1021.1
20260507063047 12 287 3.2 14.5 0.00 0.00 0.00 76 1021.2
20260507062539 12 288 4.8 14.5 0.00 0.00 0.00 76 1021.1
20260507062039 12 238 4.8 11.3 0.00 0.00 0.00 76 1021.2
20260507061540 13 292 3.2 11.3 0.00 0.00 0.00 76 1021.0
20260507061037 13 286 4.8 11.3 0.00 0.00 0.00 76 1021.1
20260507060536 13 278 1.6 9.7 0.00 0.00 0.00 76 1021.1
20260507060041 13 296 0.0 9.7 0.00 0.00 0.00 76 1021.1
20260507055538 13 286 4.8 9.7 0.00 0.00 0.00 76 1021.0
20260507055035 13 237 3.2 14.5 0.00 0.00 0.00 76 1021.2
20260507054536 13 292 4.8 16.1 0.00 0.00 0.00 76 1021.2
20260507054035 13 302 8.0 16.1 0.00 0.00 0.00 76 1021.2
20260507053534 13 287 6.4 12.9 0.00 0.00 0.00 75 1021.0
20260507053036 13 284 4.8 12.9 0.00 0.00 0.00 75 1021.0
20260507052532 13 294 3.2 14.5 0.00 0.00 0.00 75 1021.1
20260507052033 13 306 4.8 14.5 0.00 0.00 0.00 74 1021.0
20260507051533 13 244 3.2 16.1 0.00 0.00 0.00 74 1021.1
20260507051035 13 256 1.6 11.3 0.00 0.00 0.00 74 1021.1
20260507050531 13 250 3.2 19.3 0.00 0.00 0.00 74 1021.1
20260507050035 13 288 4.8 16.1 0.00 0.00 0.00 74 1021.1
20260507045531 13 298 6.4 16.1 0.00 0.00 0.00 74 1021.2
20260507045031 13 233 4.8 14.5 0.00 0.00 0.00 74 1021.2
20260507044532 13 265 6.4 14.5 0.00 0.00 0.00 74 1021.2
20260507044030 14 250 3.2 14.5 0.00 0.00 0.00 74 1021.1
20260507043529 14 302 4.8 14.5 0.00 0.00 0.00 74 1021.1
20260507043032 14 286 8.0 17.7 0.00 0.00 0.00 74 1021.1
20260507042528 14 303 6.4 19.3 0.00 0.00 0.00 74 1021.0
20260507042027 14 302 11.3 19.3 0.00 0.00 0.00 74 1020.9
20260507041534 14 316 6.4 16.1 0.00 0.00 0.00 74 1020.9
20260507041027 14 230 6.4 20.9 0.00 0.00 0.00 74 1020.8
20260507040527 15 324 12.9 20.9 0.00 0.00 0.00 74 1020.8
20260507040026 15 295 12.9 19.3 0.00 0.00 0.00 74 1020.6
20260507035526 15 289 6.4 19.3 0.00 0.00 0.00 74 1020.6
20260507035026 15 285 6.4 16.1 0.00 0.00 0.00 74 1020.5
20260507034532 15 296 8.0 22.5 0.00 0.00 0.00 74 1020.4
20260507034027 15 296 8.0 22.5 0.00 0.00 0.00 74 1020.4
20260507033525 15 285 9.7 17.7 0.00 0.00 0.00 74 1020.4
20260507033025 15 324 9.7 22.5 0.00 0.00 0.00 74 1020.1
20260507032524 15 289 11.3 22.5 0.00 0.00 0.00 74 1020.1
20260507032024 15 269 6.4 14.5 0.00 0.00 0.00 74 1019.9
20260507031524 15 286 4.8 14.5 0.00 0.00 0.00 74 1019.9
20260507031024 15 304 4.8 17.7 0.00 0.00 0.00 74 1019.8
20260507030524 15 298 6.4 17.7 0.00 0.00 0.00 74 1019.8
20260507030024 16 246 4.8 16.1 0.00 0.00 0.00 73 1019.6
20260507025524 16 306 6.4 17.7 0.00 0.00 0.00 73 1019.5
20260507025023 16 262 6.4 17.7 0.00 0.00 0.00 72 1019.5
20260507024523 16 261 6.4 16.1 0.00 0.00 0.00 72 1019.5
20260507024024 16 294 3.2 19.3 0.00 0.00 0.00 72 1019.4
20260507023524 16 317 4.8 19.3 0.00 0.00 0.00 72 1019.5
20260507023023 16 237 6.4 14.5 0.00 0.00 0.00 71 1019.4
20260507022523 17 338 4.8 14.5 0.00 0.00 0.00 71 1019.5
20260507022023 17 312 6.4 14.5 0.00 0.00 0.00 70 1019.6
20260507021522 17 305 4.8 14.5 0.00 0.00 0.00 70 1019.5
20260507021022 17 304 3.2 16.1 0.00 0.00 0.00 70 1019.5
20260507020522 17 317 8.0 16.1 0.00 0.00 0.00 69 1019.6
20260507020022 17 294 8.0 14.5 0.00 0.00 0.00 70 1019.7
20260507015521 17 298 8.0 19.3 0.00 0.00 0.00 70 1019.5
20260507015021 17 316 8.0 19.3 0.00 0.00 0.00 69 1019.7
20260507014524 18 322 12.9 20.9 0.00 0.00 0.00 69 1019.8
20260507014021 18 250 11.3 22.5 0.00 0.00 0.00 68 1019.7
20260507013521 18 305 9.7 22.5 0.00 0.00 0.00 68 1019.7
20260507013020 18 307 12.9 22.5 0.00 0.00 0.00 68 1019.6
20260507012520 18 292 9.7 22.5 0.00 0.00 0.00 68 1019.5
20260507012020 18 292 11.3 22.5 0.00 0.00 0.00 68 1019.6
20260507011520 18 291 8.0 19.3 0.00 0.00 0.00 69 1019.5
20260507011018 19 307 8.0 19.3 0.00 0.00 0.00 69 1019.5
20260507010521 19 342 1.6 16.1 0.00 0.00 0.00 69 1019.4
20260507010029 19 320 6.4 16.1 0.00 0.00 0.00 70 1019.5
20260507005520 19 316 6.4 16.1 0.00 0.00 0.00 70 1019.5
20260507005017 19 351 6.4 16.1 0.00 0.00 0.00 69 1019.5
20260507004517 19 327 11.3 16.1 0.00 0.00 0.00 69 1019.5
20260507004017 19 289 3.2 14.5 0.00 0.00 0.00 69 1019.5
20260507003516 19 333 8.0 14.5 0.00 0.00 0.00 70 1019.6
20260507003016 19 344 4.8 14.5 0.00 0.00 0.00 69 1019.4
20260507002516 19 347 4.8 16.1 0.00 0.00 0.00 69 1019.4
20260507002016 19 311 6.4 12.9 0.00 0.00 0.00 68 1019.6
20260507001517 19 314 6.4 12.9 0.00 0.00 0.00 68 1019.5
20260507001015 20 317 6.4 16.1 0.00 0.00 0.00 68 1019.5
20260507000515 20 346 6.4 16.1 0.00 0.00 0.00 67 1019.5
20260507000015 20 324 4.8 12.9 0.00 0.00 0.00 66 1019.6
20260506235514 20 321 6.4 12.9 0.00 0.00 0.00 65 1019.5
20260506235019 20 338 4.8 14.5 0.00 0.00 0.00 66 1019.5
20260506234529 20 328 6.4 14.5 0.00 0.00 0.00 65 1019.4
20260506234017 20 344 6.4 12.9 0.00 0.00 0.00 66 1019.5
20260506233514 20 9 8.0 12.9 0.00 0.00 0.00 65 1019.5
20260506233014 20 334 8.0 14.5 0.00 0.00 0.00 65 1019.5
20260506232513 20 327 6.4 14.5 0.00 0.00 0.00 65 1019.6
20260506232013 20 313 3.2 8.0 0.00 0.00 0.00 65 1019.5
20260506231513 20 294 1.6 8.0 0.00 0.00 0.00 65 1019.7
20260506231012 20 301 3.2 8.0 0.00 0.00 0.00 66 1019.6
20260506230513 20 299 1.6 12.9 0.00 0.00 0.00 65 1019.7
20260506230012 20 298 1.6 6.4 0.00 0.00 0.00 64 1019.8
20260506225513 20 188 3.2 9.7 0.00 0.00 0.00 64 1019.8
20260506225010 20 331 3.2 9.7 0.00 0.00 0.00 65 1019.8
20260506224522 20 337 3.2 12.9 0.00 0.00 0.00 67 1019.9
20260506224011 19 300 3.2 9.7 0.00 0.00 0.00 67 1020.0
20260506223510 19 306 0.0 9.7 0.00 0.00 0.00 66 1020.1
20260506223009 19 332 3.2 8.0 0.00 0.00 0.00 66 1020.2
20260506222509 20 236 0.0 4.8 0.00 0.00 0.00 66 1020.2
20260506222008 20 292 1.6 8.0 0.00 0.00 0.00 65 1020.1
20260506221511 20 293 3.2 12.9 0.00 0.00 0.00 65 1020.4
20260506221008 20 281 4.8 12.9 0.00 0.00 0.00 68 1020.1
20260506220508 20 329 6.4 12.9 0.00 0.00 0.00 66 1020.2
20260506220022 20 355 3.2 6.4 0.00 0.00 0.00 66 1020.3
20260506215507 20 288 3.2 6.4 0.00 0.00 0.00 66 1020.3
20260506215006 20 159 1.6 4.8 0.00 0.00 0.00 73 1020.1
20260506214505 19 143 0.0 6.4 0.00 0.00 0.00 71 1020.1
20260506214004 18 118 3.2 6.4 0.00 0.00 0.00 70 1020.1
20260506213503 18 38 3.2 8.0 0.00 0.00 0.00 72 1020.3
20260506213002 18 38 3.2 9.7 0.00 0.00 0.00 73 1020.3
20260506212600 18 70 6.4 11.3 0.00 0.00 0.00 72 1020.5
20260506212059 17 30 3.2 14.5 0.00 0.00 0.00 73 1020.5
20260506211559 17 326 8.0 14.5 0.00 0.00 0.00 72 1020.7
20260506211058 17 38 3.2 9.7 0.00 0.00 0.00 73 1020.7
20260506210557 17 28 1.6 8.0 0.00 0.00 0.00 74 1020.7
20260506210057 17 23 3.2 8.0 0.00 0.00 0.00 74 1020.7
20260506205656 17 355 1.6 8.0 0.00 0.00 0.00 73 1020.7
20260506205056 17 294 4.8 8.0 0.00 0.00 0.00 73 1020.7
20260506204556 17 312 3.2 9.7 0.00 0.00 0.00 74 1020.6
20260506204056 17 167 4.8 9.7 0.00 0.00 0.00 73 1020.7
20260506203559 17 47 1.6 6.4 0.00 0.00 0.00 75 1020.6
20260506203100 17 130 3.2 8.0 0.00 0.00 0.00 74 1020.7
20260506202555 17 9 3.2 8.0 0.00 0.00 0.00 74 1020.7
20260506202054 17 348 1.6 6.4 0.00 0.00 0.00 73 1020.6
20260506201553 17 350 4.8 6.4 0.00 0.00 0.00 75 1020.8
20260506201052 17 338 1.6 8.0 0.00 0.00 0.00 76 1020.7
20260506200556 17 301 4.8 8.0 0.00 0.00 0.00 75 1020.8
20260506200051 16 338 4.8 8.0 0.00 0.00 0.00 76 1020.8
20260506195549 16 298 1.6 9.7 0.00 0.00 0.00 76 1020.8
20260506195049 16 336 4.8 9.7 0.00 0.00 0.00 76 1020.9
20260506194553 16 292 1.6 11.3 0.00 0.00 0.00 75 1020.9
20260506194051 16 298 4.8 11.3 0.00 0.00 0.00 75 1020.9
20260506193548 16 321 3.2 8.0 0.00 0.00 0.00 75 1020.9
20260506193052 16 294 4.8 8.0 0.00 0.00 0.00 76 1020.8
20260506192547 16 311 1.6 8.0 0.00 0.00 0.00 76 1020.8
20260506192050 16 199 1.6 6.4 0.00 0.00 0.00 76 1020.7
20260506191547 16 201 0.0 4.8 0.00 0.00 0.00 76 1020.7
20260506191048 16 201 0.0 4.8 0.00 0.00 0.00 76 1020.8
20260506190547 16 201 0.0 4.8 0.00 0.00 0.00 77 1020.7
20260506190045 16 205 0.0 4.8 0.00 0.00 0.00 76 1020.7
20260506185545 16 267 1.6 6.4 0.00 0.00 0.00 76 1020.8
20260506185044 16 306 0.0 6.4 0.00 0.00 0.00 77 1020.7
20260506184544 16 304 1.6 6.4 0.00 0.00 0.00 77 1020.6
20260506184043 16 250 1.6 4.8 0.00 0.00 0.00 76 1020.7
20260506183546 16 248 0.0 3.2 0.00 0.00 0.00 78 1020.7
20260506183043 15 248 0.0 4.8 0.00 0.00 0.00 77 1020.6
20260506182544 15 248 1.6 6.4 0.00 0.00 0.00 78 1020.7
20260506182043 15 248 1.6 6.4 0.00 0.00 0.00 77 1020.7
20260506181558 15 220 0.0 4.8 0.00 0.00 0.00 78 1020.7
20260506181043 15 219 0.0 4.8 0.00 0.00 0.00 78 1020.8
20260506180542 15 242 0.0 8.0 0.00 0.00 0.00 77 1020.7
20260506180043 15 225 0.0 4.8 0.00 0.00 0.00 78 1020.7
20260506175541 15 216 0.0 3.2 0.00 0.00 0.00 77 1020.7
20260506175042 15 216 0.0 4.8 0.00 0.00 0.00 77 1020.6
20260506174541 15 216 0.0 4.8 0.00 0.00 0.00 77 1020.6
20260506174041 15 216 1.6 4.8 0.00 0.00 0.00 77 1020.4
20260506173542 16 217 0.0 4.8 0.00 0.00 0.00 76 1020.4
20260506173056 16 299 0.0 1.6 0.00 0.00 0.00 77 1020.5
20260506172540 15 299 0.0 3.2 0.00 0.00 0.00 76 1020.5
20260506172041 15 299 0.0 6.4 0.00 0.00 0.00 76 1020.4
20260506171547 15 299 3.2 8.0 0.00 0.00 0.00 77 1020.5
20260506171040 15 294 4.8 8.0 0.00 0.00 0.00 77 1020.4
20260506170540 15 300 1.6 9.7 0.00 0.00 0.00 76 1020.5
20260506170039 15 302 3.2 9.7 0.00 0.00 0.00 76 1020.4
20260506165541 15 302 3.2 12.9 0.00 0.00 0.00 77 1020.5
20260506165039 15 313 4.8 12.9 0.00 0.00 0.00 77 1020.3
20260506164539 15 303 4.8 9.7 0.00 0.00 0.00 77 1020.4
20260506164037 15 304 0.0 9.7 0.00 0.00 0.00 76 1020.3
20260506163542 15 309 0.0 8.0 0.00 0.00 0.00 76 1020.3
20260506163038 15 9 0.0 0.0 0.00 0.00 0.00 76 1020.3
20260506162542 16 45 0.0 0.0 0.00 0.00 0.00 77 1020.3
20260506162038 15 45 0.0 0.0 0.00 0.00 0.00 76 1020.1
20260506161537 15 45 0.0 0.0 0.00 0.00 0.00 76 1020.1
20260506161035 15 309 0.0 0.0 0.00 0.00 0.00 78 1020.0
20260506160534 15 337 0.0 0.0 0.00 0.00 0.00 80 1019.9
20260506160040 14 5 0.0 0.0 0.00 0.00 0.00 80 1019.8
20260506155533 13 348 0.0 0.0 0.00 0.00 0.00 81 1019.8
20260506155036 13 355 0.0 0.0 0.00 0.00 0.00 83 1019.7
20260506154535 13 355 0.0 0.0 0.00 0.00 0.00 82 1019.8
20260506154034 13 350 0.0 9.7 0.00 0.00 0.00 82 1020.1
20260506153534 13 300 0.0 9.7 0.00 0.00 0.00 83 1020.5
20260506153033 13 318 1.6 16.1 0.00 0.00 0.00 82 1020.5
20260506152533 13 327 3.2 16.1 0.00 0.00 0.00 83 1020.5
20260506152033 13 292 3.2 8.0 0.00 0.00 0.00 83 1020.5
20260506151532 13 269 0.0 0.0 0.00 0.00 0.00 83 1020.6
20260506151031 13 243 0.0 0.0 0.00 0.00 0.00 83 1020.5
20260506150530 13 278 0.0 0.0 0.00 0.00 0.00 83 1020.5
20260506150030 13 288 0.0 0.0 0.00 0.00 0.00 83 1020.3
20260506145529 13 273 0.0 0.0 0.00 0.00 0.00 83 1020.1
20260506145029 13 285 0.0 0.0 0.00 0.00 0.00 83 1020.2
20260506144529 13 250 0.0 0.0 0.00 0.00 0.00 83 1020.1
20260506144029 13 296 0.0 0.0 0.00 0.00 0.00 83 1020.0
20260506143528 13 273 0.0 0.0 0.00 0.00 0.00 83 1019.9
20260506143026 13 217 0.0 0.0 0.00 0.00 0.00 83 1019.7
20260506142527 13 217 0.0 0.0 0.00 0.00 0.00 83 1019.7
20260506142027 13 217 0.0 0.0 0.00 0.00 0.00 83 1019.7
20260506141527 13 215 0.0 0.0 0.00 0.00 0.00 83 1019.7
20260506141029 13 215 0.0 0.0 0.00 0.00 0.00 83 1019.7
20260506140525 13 215 0.0 0.0 0.00 0.00 0.00 83 1019.8
20260506140025 13 215 0.0 0.0 0.00 0.00 0.00 83 1019.6
20260506135523 13 215 0.0 0.0 0.00 0.00 0.00 83 1019.6
20260506135023 13 214 0.0 0.0 0.00 0.00 0.00 84 1019.5
20260506134525 13 214 0.0 0.0 0.00 0.00 0.00 84 1019.5
20260506134023 13 214 0.0 0.0 0.00 0.00 0.00 83 1019.4
20260506133527 13 214 0.0 0.0 0.00 0.00 0.00 83 1019.4
20260506133023 13 214 0.0 0.0 0.00 0.00 0.00 84 1019.4
20260506132522 13 214 0.0 0.0 0.00 0.00 0.00 84 1019.4
20260506132022 13 214 0.0 0.0 0.00 0.00 0.00 84 1019.3
20260506131540 13 214 0.0 0.0 0.00 0.00 0.00 83 1019.3
20260506131021 13 214 0.0 0.0 0.00 0.00 0.00 83 1019.2
20260506130520 13 214 0.0 0.0 0.00 0.00 0.00 83 1019.3
20260506130035 13 214 0.0 0.0 0.00 0.00 0.00 83 1019.3
20260506125519 13 214 0.0 0.0 0.00 0.00 0.00 83 1019.2
20260506125019 13 214 0.0 0.0 0.00 0.00 0.00 83 1019.1
20260506124519 13 214 0.0 0.0 0.00 0.00 0.00 83 1019.1
20260506124019 13 214 0.0 0.0 0.00 0.00 0.00 83 1019.2
20260506123519 13 214 0.0 0.0 0.00 0.00 0.00 83 1019.1
20260506123019 13 214 0.0 0.0 0.00 0.00 0.00 83 1019.1
20260506122519 13 214 0.0 0.0 0.00 0.00 0.00 83 1019.1
20260506122018 13 214 0.0 0.0 0.00 0.00 0.00 83 1019.2
20260506121518 13 214 0.0 0.0 0.00 0.00 0.00 83 1019.1
20260506121020 13 214 0.0 0.0 0.00 0.00 0.00 83 1019.0
20260506120521 13 214 0.0 0.0 0.00 0.00 0.00 83 1019.0
20260506120019 13 214 0.0 0.0 0.00 0.00 0.00 83 1019.2
20260506115516 13 214 0.0 0.0 0.00 0.00 0.00 83 1019.0
20260506115015 13 214 0.0 0.0 0.00 0.00 0.00 83 1018.8
20260506114521 13 214 0.0 0.0 0.00 0.00 0.00 83 1018.9
20260506114017 13 214 0.0 0.0 0.00 0.00 0.00 83 1018.8
20260506113516 13 213 0.0 0.0 0.00 0.00 0.00 82 1018.8
20260506113015 13 214 0.0 0.0 0.00 0.00 0.00 83 1018.8
20260506112513 13 213 0.0 0.0 0.00 0.00 0.00 83 1018.6
20260506112013 13 213 0.0 0.0 0.00 0.00 0.00 82 1018.6
20260506111512 13 213 0.0 0.0 0.00 0.00 0.00 82 1018.5
20260506111011 13 215 0.0 0.0 0.00 0.00 0.00 83 1018.4
20260506110510 13 215 0.0 0.0 0.00 0.00 0.00 82 1018.4